This is the latest recevied weather packets stored in our database for station/object K8WEH. If no packets are shown the sender has not sent any weather packets the latest 1 day(s).
| Time | Temp. | Humidity | Pressure | Rain* | Wind** | Luminosity | Snow |
|---|---|---|---|---|---|---|---|
| 1778017208 | 20.56° C | 59% | 1009.6 hPa | 0 mm | 0 m/s | - | - |
| 1778016908 | 20.56° C | 58% | 1009.3 hPa | 0 mm | 0.45 m/s, 125° | - | - |
| 1778016618 | 20.56° C | 59% | 1009.4 hPa | 0 mm | 0 m/s | - | - |
| 1778016309 | 20.56° C | 59% | 1009.3 hPa | 0 mm | 0 m/s | - | - |
| 1778016008 | 20.56° C | 57% | 1009.3 hPa | 0 mm | 0.45 m/s, 242° | - | - |
| 1778015707 | 21.11° C | 58% | 1009.3 hPa | 0 mm | 0.45 m/s, 166° | - | - |
| 1778015407 | 21.11° C | 57% | 1009.3 hPa | 0 mm | 0 m/s | - | - |
| 1778015107 | 21.11° C | 56% | 1009.3 hPa | 0 mm | 1.34 m/s, 132° | - | - |
| 1778014806 | 21.11° C | 57% | 1009 hPa | 0 mm | 0.45 m/s, 196° | - | - |
| 1778014509 | 21.11° C | 56% | 1009.1 hPa | 0 mm | 0 m/s | - | - |
| 1778014207 | 21.11° C | 56% | 1009.2 hPa | 0 mm | 0.45 m/s, 273° | - | - |
| 1778013906 | 21.11° C | 56% | 1009.2 hPa | 0 mm | 0.45 m/s, 188° | - | - |
| 1778013608 | 21.11° C | 57% | 1009.1 hPa | 0 mm | 0.45 m/s, 310° | - | - |
| 1778013305 | 21.11° C | 57% | 1009.2 hPa | 0 mm | 0.89 m/s, 149° | - | - |
| 1778013004 | 21.11° C | 60% | 1009.4 hPa | 0 mm | 0 m/s | - | - |
| 1778012704 | 21.11° C | 57% | 1009.4 hPa | 0 mm | 0.89 m/s, 188° | - | - |
| 1778012404 | 21.11° C | 58% | 1009.4 hPa | 0 mm | 0.45 m/s, 220° | - | - |
| 1778012103 | 21.11° C | 59% | 1009.5 hPa | 0 mm | 0.45 m/s, 293° | - | - |
| 1778011803 | 21.67° C | 57% | 1009.7 hPa | 0 mm | 0.89 m/s, 259° | - | - |
| 1778011503 | 21.67° C | 57% | 1009.6 hPa | 0 mm | 0.45 m/s, 149° | - | - |
| 1778011204 | 21.67° C | 55% | 1009.7 hPa | 0 mm | 0.89 m/s, 267° | - | - |
| 1778010903 | 21.67° C | 57% | 1009.9 hPa | 0 mm | 0.89 m/s, 140° | - | - |
| 1778010601 | 21.67° C | 58% | 1010 hPa | 0 mm | 0.45 m/s, 134° | - | - |
| 1778010302 | 21.67° C | 58% | 1010.1 hPa | 0 mm | 0.45 m/s, 193° | - | - |
| 1778010060 | 21.11° C | 59% | 1010.1 hPa | 0 mm | 0.45 m/s, 227° | - | - |
* Rain latest hour (hover to see other rain measurements)
** Current wind speed in m/s (hover to see current wind gust speed)